This demonstration page uses our WeatherBlox Daily Observations layout. Learn more.

Left ArrowRight Arrow

39.51506, -84.39828

Hourly Observations for May 1, 2019

Temp ( °F °C ) Dew Point ( °F °C ) Humidity (%) Winds ( mph kmh ) Pressure ( in mb ) Visibility ( mi km ) Precip ( " mm )
12:15 am 00:15 Clear 56 13.6 56 13.2 97 97 NNE 3 6 30.06 1018 7 11 0.00 0.00
12:35 am 00:35 Clear 57 13.7 56 13.3 97 97 Calm 30.06 1018 7 11 0.00 0.00
12:55 am 00:55 Clear with Mist and Fog 55 12.9 54 12.4 97 97 Calm 30.06 1018 7 11 0.00 0.00
1:15 am 01:15 Partly Cloudy with Mist and Fog 56 13.2 55 12.9 98 98 Calm 30.06 1018 7 11 0.00 0.00
1:35 am 01:35 Clear with Mist and Fog 55 12.7 55 12.5 99 99 Calm 30.06 1018 4 6 0.00 0.00
1:55 am 01:55 Clear with Mist and Fog 55 12.5 54 12.3 99 99 Calm 30.06 1018 7 11 0.00 0.00
2:15 am 02:15 Clear with Mist and Fog 54 12.4 54 12.2 99 99 Calm 30.06 1018 7 11 0.00 0.00
2:35 am 02:35 Clear with Mist and Fog 54 12.4 54 12.2 99 99 Calm 30.05 1018 7 11 0.00 0.00
2:55 am 02:55 Clear with Mist and Fog 54 12.2 54 12 99 99 Calm 30.05 1018 7 11 0.00 0.00
3:15 am 03:15 Clear with Mist and Fog 54 12 53 11.8 99 99 Calm 30.05 1018 5 8 0.00 0.00
3:35 am 03:35 Clear 53 11.9 53 11.7 99 99 Calm 30.04 1017 7 11 0.00 0.00
3:55 am 03:55 Clear 53 11.8 53 11.5 98 98 Calm 30.04 1017 10 16 0.00 0.00
4:15 am 04:15 Clear with Mist and Fog 54 12 53 11.7 98 98 Calm 30.04 1017 5 8 0.00 0.00
4:35 am 04:35 Clear 53 11.8 53 11.6 99 99 Calm 30.03 1017 10 16 0.00 0.00
4:55 am 04:55 Clear 54 12 53 11.7 98 98 Calm 30.03 1017 10 16 0.00 0.00
5:15 am 05:15 Clear 53 11.8 53 11.5 98 98 Calm 30.02 1017 10 16 0.00 0.00
5:35 am 05:35 Clear 54 12.1 53 11.8 98 98 Calm 30.02 1017 10 16 0.00 0.00
5:55 am 05:55 Partly Cloudy 53 11.8 53 11.4 97 97 Calm 30.02 1017 10 16 0.00 0.00
6:15 am 06:15 Partly Cloudy 54 12.3 53 11.7 96 96 Calm 30.02 1017 10 16 0.00 0.00
6:35 am 06:35 Partly Cloudy 58 14.2 56 13.2 94 94 SSW 3 6 30.03 1017 10 16 0.00 0.00
6:55 am 06:55 Partly Cloudy 61 16.3 58 14.2 87 87 SSW 6 9 30.02 1017 10 16 0.00 0.00
7:15 am 07:15 Sunny 65 18.3 59 15.1 82 82 SSW 8 13 30.03 1017 10 16 0.00 0.00
7:35 am 07:35 Sunny 65 18.6 59 15.1 80 80 SSW 9 15 30.04 1017 10 16 0.00 0.00
7:55 am 07:55 Sunny 67 19.4 60 15.4 78 78 SSW 12 19 30.04 1017 10 16 0.00 0.00
8:15 am 08:15 Partly Cloudy 69 20.6 61 15.9 75 75 S 12 19 30.04 1017 10 16 0.00 0.00
8:35 am 08:35 Sunny 70 21.2 61 15.9 72 72 S 16 26 30.03 1017 10 16 0.00 0.00
8:55 am 08:55 Sunny 71 21.6 61 16.1 71 71 S 16 26 30.03 1017 10 16 0.00 0.00
9:15 am 09:15 Sunny 70 21.2 61 16 72 72 S 14 22 30.03 1017 10 16 0.00 0.00
9:35 am 09:35 Sunny 73 22.5 62 16.7 70 70 SSW 14 22 30.03 1017 10 16 0.00 0.00
9:55 am 09:55 Sunny 76 24.2 63 17.1 65 65 SSW 23 37 30.02 1017 10 16 0.00 0.00
10:15 am 10:15 Sunny 76 24.5 63 17.2 64 64 SSW 18 30 30.02 1017 10 16 0.00 0.00
10:35 am 10:35 Sunny 77 24.9 62 16.8 61 61 SW 26 43 30.02 1017 10 16 0.00 0.00
10:55 am 10:55 Sunny 77 25.2 62 16.8 60 60 SW 21 33 30.01 1016 10 16 0.00 0.00
11:15 am 11:15 Sunny 77 25.2 62 16.6 59 59 SW 25 41 30.02 1017 10 16 0.00 0.00
11:35 am 11:35 Sunny 77 25.1 62 16.6 59 59 SSW 25 41 30.01 1016 10 16 0.00 0.00
11:55 am 11:55 Sunny 78 25.5 62 16.9 59 59 SSW 22 35 30.01 1016 10 16 0.00 0.00
12:15 pm 12:15 Mostly Cloudy 77 25 62 16.6 60 60 SSW 21 33 30.01 1016 10 16 0.00 0.00
12:35 pm 12:35 Mostly Cloudy 77 25 62 16.8 60 60 SW 20 31 30.01 1016 10 16 0.00 0.00
12:55 pm 12:55 Mostly Cloudy 78 25.7 62 16.9 58 58 SSW 21 33 30.00 1016 10 16 0.00 0.00
1:15 pm 13:15 Sunny 79 26.1 61 16.2 54 54 SSW 26 43 29.99 1016 10 16 0.00 0.00
1:35 pm 13:35 Partly Cloudy 79 26.3 62 16.7 56 56 SSW 24 39 30.00 1016 10 16 0.00 0.00
1:55 pm 13:55 Mostly Cloudy 79 26.2 62 16.4 55 55 SW 25 41 30.00 1016 10 16 0.00 0.00
2:15 pm 14:15 Partly Cloudy 79 26 62 16.6 56 56 SSW 23 37 30.01 1016 10 16 0.00 0.00
2:35 pm 14:35 Partly Cloudy 79 26 62 16.6 56 56 SSW 26 43 30.01 1016 10 16 0.00 0.00
2:55 pm 14:55 Mostly Cloudy 79 26.3 62 16.9 56 56 SSW 17 28 30.01 1016 10 16 0.00 0.00
3:15 pm 15:15 Mostly Cloudy 79 26.3 62 16.5 55 55 SSW 23 37 30.02 1017 10 16 0.00 0.00
3:35 pm 15:35 Mostly Cloudy 80 26.5 62 16.4 54 54 SSW 16 26 30.01 1016 10 16 0.00 0.00
3:55 pm 15:55 Mostly Cloudy 80 26.4 62 16.4 54 54 SSW 18 30 30.01 1016 10 16 0.00 0.00
4:15 pm 16:15 Partly Cloudy 80 26.9 61 16.1 52 52 SSW 21 33 30.00 1016 10 16 0.00 0.00
4:35 pm 16:35 Partly Cloudy 81 27.2 61 16.2 51 51 SSW 21 33 29.99 1016 10 16 0.00 0.00
4:55 pm 16:55 Partly Cloudy 80 26.8 61 15.9 51 51 SSW 20 31 29.98 1015 10 16 0.00 0.00
5:15 pm 17:15 Cloudy 80 26.4 60 15.4 51 51 SSW 17 28 29.98 1015 10 16 0.00 0.00
5:35 pm 17:35 Cloudy 77 25 61 15.9 57 57 WNW 18 30 30.01 1016 10 16 0.00 0.00
5:55 pm 17:55 Cloudy 71 21.5 63 17.1 76 76 NW 13 20 30.02 1017 10 16 0.00 0.00
6:15 pm 18:15 Mostly Cloudy 70 21.2 63 17 77 77 NNW 5 7 30.03 1017 10 16 0.00 0.00
6:35 pm 18:35 Cloudy 70 20.9 62 16.9 78 78 NW 6 9 30.04 1017 10 16 0.00 0.00
6:55 pm 18:55 Mostly Cloudy 69 20.7 62 16.7 78 78 N 6 9 30.04 1017 10 16 0.00 0.00
7:15 pm 19:15 Cloudy 67 19.7 63 17.1 85 85 NNW 5 7 30.06 1018 7 11 0.01 0.25
7:35 pm 19:35 Partly Cloudy 67 19.4 63 17.3 88 88 N 3 6 30.07 1018 10 16 0.01 0.25
7:55 pm 19:55 Mostly Cloudy 67 19.2 64 17.6 91 91 Calm 30.08 1019 10 16 0.01 0.25
8:15 pm 20:15 Mostly Cloudy 66 19 64 17.5 91 91 Calm 30.08 1019 10 16 0.00 0.00
8:35 pm 20:35 Cloudy 66 18.8 64 17.6 93 93 ESE 5 7 30.08 1019 10 16 0.00 0.00
8:55 pm 20:55 Cloudy with Heavy Rain 65 18.3 64 17.7 96 96 WNW 3 6 30.09 1019 5 8 0.05 1.27
9:15 pm 21:15 Cloudy with Heavy Rain 65 18.3 64 17.8 97 97 SSE 5 7 30.11 1020 5 8 0.06 1.52
9:35 pm 21:35 Cloudy with Light Rain 65 18.4 64 17.9 97 97 ESE 5 7 30.08 1019 5 8 0.09 2.29
10:15 pm 22:15 Cloudy with Light Rain 64 17.8 63 17.4 98 98 Calm 30.07 1018 5 8 0.00 0.00
10:35 pm 22:35 Cloudy with Light Rain 64 17.6 63 17.3 98 98 Calm 30.08 1019 4 6 0.00 0.00
10:55 pm 22:55 Cloudy with Heavy Rain 64 17.7 64 17.5 99 99 WNW 6 9 30.10 1019 3 5 0.12 3.05
11:15 pm 23:15 Cloudy with Rain 64 17.6 63 17.3 98 98 Calm 30.11 1020 4 6 0.07 1.78
11:35 pm 23:35 Cloudy with Light Rain 64 17.5 63 17.1 98 98 Calm 30.11 1020 7 11 0.12 3.05
11:55 pm 23:55 Cloudy 63 17.1 62 16.8 98 98 Calm 30.11 1020 7 11 0.12 3.05

Powered by AerisWeather